Regional Weather Roundup
Issued by NWS Jackson, KY

Home | Current Version | Previous Version | Text Only | Print | Product List | Glossary On
Versions: 1 2 3 4 5 6 7 8 9 10 11 12 13 14 15 16 17 18 19 20 21 22 23 24 25 26 27 28 29 30 31 32 33 34 35 36 37 38 39 40 41 42 43 44 45 46 47 48 49 50
000
ASUS43 KJKL 300510
RWRJKL

EAST KENTUCKY HOURLY WEATHER ROUNDUP
NATIONAL WEATHER SERVICE JACKSON KY
100 AM EDT TUE JUN 30 2015

NOTE: "FAIR" INDICATES FEW OR NO CLOUDS BELOW 12,000 FEET WITH
NO SIGNIFICANT WEATHER AND/OR OBSTRUCTIONS TO VISIBILITY.

* THESE REPORTS ARE NOT UNDER NWS QUALITY CONTROL AND MAY NOT
  REPORT WEATHER SUCH AS PRECIPITATION AND FOG.

KYZ079-080-083-085-087-088-110-112-115-119-120-300600
...EASTERN KENTUCKY...

CITY           SKY/WX    TMP DP  RH WIND       PRES   REMARKS
JACKSON        CLOUDY    67  64  90 CALM      29.92S
LONDON         CLOUDY    68  62  81 SW3       29.94S
SOMERSET*      MOCLDY    64  64 100 CALM      29.93F
MONTICELLO*    CLOUDY    67  67 100 CALM      29.96S
MIDDLESBORO*   CLOUDY    66  66 100 CALM      29.96F
HARLAN APT*      N/A     64  64 100 N6        29.96S VSB<1/4
BLACK MTN*       N/A     61  61 100 SW10        N/A
PIKEVILLE APT* PTCLDY    68  64  88 SW3       29.92S
BIG SANDY*     CLOUDY    70  65  84 SW6       29.91R
MOREHEAD APT*  MOCLDY    66  64  94 SW7       29.91R
$$

KYZ035-036-041-042-044-050-067-078-099-300600
...CENTRAL KENTUCKY...

CITY           SKY/WX    TMP DP  RH WIND       PRES   REMARKS
MT STERLING*   MOCLDY    64  64 100 SW7       29.91R
FLEMING/MASON* PTCLDY   N/A N/A N/A S7        29.88S
DANVILLE*      CLOUDY    66  64  94 SW5       29.93R
RICHMOND*      CLOUDY    68  64  88 SW6       29.91R
LEXINGTON      MOCLDY    67  65  93 S8        29.89R
FRANKFORT      PTCLDY    67  65  93 W5        29.87R
$$

KYZ091>093-OHZ055-061-077-WVZ005-015-034-035-042-300600
...SOUTHERN OHIO/WEST VIRGINIA...

CITY           SKY/WX    TMP DP  RH WIND       PRES   REMARKS
COVINGTON      PTCLDY    67  65  93 CALM      29.85S
COLUMBUS       CLOUDY    64  63  94 CALM      29.82S
DAYTON         PTCLDY    64  62  93 CALM      29.85S
WILMINGTON     PTCLDY    65  64  97 SW6       29.84S FOG
HUNTINGTON     CLOUDY    66  65  96 SW5       29.86R
CHARLESTON     CLOUDY    68  65  90 CALM      29.86F
PINEVILLE*     CLOUDY    67  65  93 MISG      29.99S
BECKLEY        CLOUDY    67  57  70 S6        29.97S
BLUEFIELD      LGT RAIN  68  57  68 S7        30.01S
$$

VAZ002-007-008-TNZ017-027-036-066-071-300600
...SOUTHWEST VIRGINIA/EAST TENNESSEE...

CITY           SKY/WX    TMP DP  RH WIND       PRES   REMARKS
WISE*          CLOUDY    64  64 100 SW12      30.01S
JONESVILLE*      N/A    N/A N/A N/A MISG        N/A
ABINGDON*      CLOUDY    70  63  78 W9        29.99R
BRISTOL        MOCLDY    69  62  78 S3        29.97R
KNOXVILLE      LGT RAIN  68  66  93 NE8       29.97R
OAK RIDGE      LGT RAIN  67  64  90 CALM      29.98S
CROSSVILLE     TSTM      68  64  87 NE14      30.00R
NASHVILLE      CLOUDY    73  72  96 SW6       29.92R
$$

...KEY TO REMARKS...
VSB - VISIBILITY IN MILES
WCI - WIND CHILL INDEX
HX  - HEAT INDEX

$$


USA.gov is the U.S. government's official web portal to all federal, state and local government web resources and services.